Погода в Сан-Хуан-дель-Сур

Никарагуа     11°15′14″N   85°52′10″W
темп.,
°C
ветер,
м/с
пор.,
м/с
влажн.,
%
обл.,
%
осадки,
мм/ч
давл.,
гПа
погр.,
м
15 мая, сб
сб1500:00+26всв91578100 0.0 10121160
03:00+26всв101576100 0.0 10101211
06:00+26всв10157754 0.0 10121213
09:00+29всв11166365 0.0 10131439
12:00+32всв914502 0.0 10111673
15:00+33в712455 0.0 10081750
18:00+29в9135937 0.0 1009985
21:00+27в1014735 0.0 1012980
16 мая, вс
вс1600:00+26в913755 0.0 1012913
03:00+25всв8128042 0.0 1011967
06:00+25всв8127917 0.1 10121052
09:00+28всв9136594 0.1 10131176
12:00+31всв7115416 0.1 10121506
15:00+31в6105692 0.0 10091342
18:00+29в611655 0.0 1011601
21:00+27в81269100 0.0 1013678
17 мая, пн
пн1700:00+25в7128078 0.0 1012707
03:00+25в6108322 0.0 1011692
06:00+25всв6108427 0.1 1012786
09:00+28всв796885 0.1 10141143
12:00+30всв6860100 0.1 1012989
15:00+31всв585585 0.0 1009782
18:00+28юв3566100 0.0 1010228
21:00+26ююв2477100 0.1 1012220
18 мая, вт
вт1800:00+25в2479100 0.1 1012171
03:00+25в488064 0.0 1011473
06:00+25всв5879100 0.0 1012682
09:00+28всв68625 0.0 1014928
12:00+30всв674942 0.0 1012950
15:00+32в584198 0.0 10081010
18:00+29вюв245558 0.0 100979
21:00+26ююв247564 0.0 1011151
19 мая, ср
ср1900:00+25св118220 0.0 1012117
03:00+25в228234 0.1 1011142
06:00+24в248261 0.1 1012311
09:00+29всв556744 0.1 10121032
12:00+31всв56550 0.2 10111000
15:00+32всв57508 0.0 1007969
18:00+29юв36655 0.0 1008210
21:00+26ююз24825 0.0 1010123